Regional Weather Roundup
Issued by NWS Charleston, SC

Home | Current Version | Previous Version | Text Only | Print | Product List | Glossary On
Versions: 1 2 3 4 5 6 7 8 9 10 11 12 13 14 15 16 17 18 19 20 21 22 23 24 25 26 27 28 29 30 31 32 33 34 35 36 37 38 39 40 41 42 43 44 45 46 47 48 49 50
000
ASUS42 KCHS 181610
RWRCHS

REGIONAL WEATHER ROUNDUP
NATIONAL WEATHER SERVICE CHARLESTON SC
1200 PM EDT FRI APR 18 2014

NOTE: "FAIR" INDICATES FEW OR NO CLOUDS BELOW 12,000 FEET WITH NO
SIGNIFICANT WEATHER AND/OR OBSTRUCTIONS TO VISIBILITY.

NOT ALL STATIONS ARE QUALITY CONTROLLED BY THE NATIONAL
WEATHER SERVICE. USE DATA WITH CAUTION...ESPECIALLY
DEWPOINT OBSERVATIONS.

SCZ027-030-031-034>040-042>050-181700-
...SOUTH CAROLINA...

CITY           SKY/WX    TMP DP  RH WIND       PRES   REMARKS
N CHARLESTON   CLOUDY    64  49  57 NE12      30.26F
WATERFRONT PRK   N/A     63 N/A N/A NE17        N/A
FORT JOHNSON   NOT AVBL
MOUNT PLEASANT FAIR     N/A N/A N/A E5        30.27F
JOHNS ISLAND   PTSUNNY   63  54  72 NE18G24   30.26F
PINOPOLIS        N/A     61  48  63 NE13      30.21F
MONCKS CORNER  FAIR      63  52  67 NE7       30.29S
SUMMERVILLE    CLOUDY    61  50  67 NE8       30.28F
BEAUFORT MCAS  CLOUDY    62  50  64 E12       30.25F
BEAUFORT ARPT  CLOUDY    61  54  77 NE18      30.24F
HILTON HEAD IS CLOUDY    61  55  82 N20G26    30.24F
GEORGETOWN     NOT AVBL
WALTERBORO     CLOUDY    61  50  67 NE7G20    30.26F
ORANGEBURG     CLOUDY    58  44  60 NE10      30.31F
BARNWELL       FAIR      57  46  67 NE13      30.28F
AIKEN          FAIR      57  48  72 NE14G20   30.33F
MANNING        PTSUNNY   61  46  59 N8        30.32F
KINGSTREE      NOT AVBL
COLUMBIA       CLOUDY    60  43  53 NE10      30.34S
SUMTER         CLOUDY    58  42  55 NE16      30.33F
FLORENCE       CLOUDY    59  41  51 NE13      30.35F
MYRTLE BEACH   PTSUNNY   57  52  82 NE15      30.33S
N MYRTLE BEACH CLOUDY    57  48  72 N9        30.34R

$$

GAZ063-065-086>088-099>101-113>116-118-119-134-136>141-150-181700-
...GEORGIA...

CITY           SKY/WX    TMP DP  RH WIND       PRES   REMARKS
SAVANNAH ARPT  CLOUDY    62  53  72 NE10      30.22F
HUNTER AAF     CLOUDY    61  55  80 NE12G20   30.19F
FORT STEWART   LGT RAIN  60  60 100 NE12G22   30.16F
STATESBORO     NOT AVBL
SYLVANIA       DRIZZLE   57  52  82 NE6       30.27S
CLAXTON        LGT RAIN  55  55 100 NE12G17   30.19F
THOMSON        CLOUDY    55  49  82 NE8       30.34F
AUGUSTA-BUSH   CLOUDY    58  45  62 NE9       30.30F
AUGUSTA-DANIEL CLOUDY    58  46  64 NE15      30.30F
SWAINSBORO     LGT RAIN  52  52 100 NE13G18   30.24F
VIDALIA        LGT RAIN  55  54  94 NE14G21   30.19F
ALMA           HVY RAIN  58  55  90 N9        30.13F VSB 1
WAYCROSS       NOT AVBL
JESUP          CLOUDY    59  59 100 E12G17    30.14F
BRUNSWICK      CLOUDY    63  61  94 NE14G24   30.13F
SAINT SIMONS   CLOUDY    63  62  97 NE18G30   30.11F FOG

$$

SCZ027-028-034-036>038-045-046-048>050-GAZ119-141-181700-
...LAKE AND SUPPLEMENTAL COASTAL OBSERVATIONS...

STATION/POSITION TIME  TEMP    WIND        PRES    WAVE   SWELL
                       AIR SEA DIR/SP/G            HT/PER HT/PER/DIR
                 (UTC) (F)     (DEG/KT/KT) (MB)    (FT/S) (FT/S/D)
UPR LAKE MARION  NOT AVBL
WINYAH BAY       1500   57      40/ 13     1026.0S
LAKE MURRAY      1500   56      40/  3/  6 1027.8R
ACE BASIN NERRS  1500   60      40/  5     1025.0S
FORT PULASKI     1600   60 59   40/ 22/ 30 1023.2F
SAPELO ISLAND    1500   63      40/ 16     1021.0F

$$

ANZ835-935-AMZ111-154-330-350-352-354-374-450-454-472-181700-
...C-MAN AND BUOY OBSERVATIONS...

STATION/POSITION TIME  TEMP    WIND        PRES    WAVE   SWELL
                       AIR SEA DIR/SP/G            HT/PER HT/PER/DIR
                 (UTC) (F)     (DEG/KT/KT) (MB)    (FT/S) (FT/S/D)
FOLLY BEACH CMAN 1500   58      50/ 21/ 26 1025.8R
BUOY 41004       NOT AVBL
BUOY 41008       1600   65 65   50/ 23/ 29 1019.7F   8/ 7   2/100/11
5E ST. MARYS GA  1600      64                N/A     5/12   2/ 90/12
FRYING PAN BUOY  1600   58 64   40/ 21/ 27 1025.2F   7/ 6   3/110/10
BUOY 41025       NOT AVBL
CAPE LOOKOUT NC  1500   55      20/ 17/ 20 1027.6S
BUOY 41002       NOT AVBL
BUOY 41010       1600   75 76  130/ 17/ 21 1019.5F   8/10   5/ 40/10
BUOY 41012       NOT AVBL
ST AUGUSTINE FL  1600   68     120/ 17/ 20 1018.2F
CAPERS NEARSHORE 1500           70/ 23/ 27   N/A
FRIPP NEARSHORE  1500   60      70/ 21/ 29   N/A


$$


USA.gov is the U.S. government's official web portal to all federal, state and local government web resources and services.